SCP
0 -0 0 -0 -0 0 -0 0 0 0 0 0 -0 -0 0 0 -0 -0 0 -0 0 -0 -0 -0 0 0 0 0 0 0 0 0 0 0 0 0 0 0
0 0 -0 -0 0 -0 0 0 0 -0 -0 0 0 0 -0 -0 -0 -0 -0 0 -0 -0 -0 -0 0 0 0 0 0 0 0 0 0 0 0 0 0 0
-0 -0 0 -0 -0 -0 0 0 -0 -0 -0 -0 -0 -0 -0 -0 -0 -0 -0 -0 0 -0 0 0 0 0 0 0 0 0 0 0 0 0 0 0 0 0
0 -0 0 0 -0 -0 -0 -0 -0 -0 -0 -0 -0 -0 -0 -0 -0 0 0 0 -0 -0 0 0 0 0 0 0 0 0 0 0 0 0 0 0 0 0
0 0 0 0 0 -0 -0 -0 -0 -0 -0 -0 -0 -0 -0 -0 -0 -0 0 1 0 0 0 -0 0 0 0 0 0 0 0 0 0 0 0 0 0 0
0 0 0 0 0 0 0 -0 -0 -0 -0 -0 -0 -0 0 0 0 0 0 -0 -0 0 0 0 0 0 0 0 0 0 0 0 0 0 0 0 0 0
-0 -0 -0 0 0 0 0 0 0 0 0 0 -0 -0 -0 -1 -0 -0 -0 -0 -0 -0 -0 -0 -0 0 0 0 0 0 0 0 0 0 0 0 0 0
0 0 -0 -0 -0 0 0 0 0 0 0 0 -0 -0 -0 -0 -0 -0 -0 -0 -0 0 0 -0 0 -0 0 0 0 0 0 0 0 0 0 0 0 0
1 1 0 0 -0 0 0 0 0 0 0 0 0 0 0 0 0 -0 0 0 -0 0 0 0 1 1 1 0 0 0 0 0 0 0 0 0 0 0
1 2 1 1 -0 1 1 1 0 0 0 0 0 0 0 0 0 0 0 0 0 0 0 0 1 1 0 0 0 0 0 0 0 0 0 0 0 0
1 1 1 2 1 0 0 1 2 1 1 0 0 0 0 0 0 1 1 0 0 0 0 -0 -0 -0 0 0 0 0 0 0 0 0 0 0 0 0
1 1 0 0 1 1 1 2 1 1 2 1 1 0 0 0 0 0 1 0 0 0 0 0 0 -0 0 0 0 0 0 0 0 0 0 0 0 0
1 1 1 1 0 0 0 1 1 2 2 1 1 1 1 1 1 1 1 0 0 0 1 1 1 1 0 0 0 0 0 0 0 0 0 0 0 0
1 1 1 0 0 0 0 0 0 0 1 1 1 1 1 0 0 0 1 1 1 1 1 3 2 2 1 1 0 1 0 0 0 0 0 0 0 0
0 0 0 0 -0 -0 -0 0 0 0 0 1 1 1 1 1 1 0 0 1 1 2 2 2 3 2 2 1 1 1 1 1 0 0 0 0 0 0
0 0 0 0 0 0 0 0 0 0 0 1 1 1 1 1 1 1 0 0 0 2 2 2 3 3 2 2 1 1 1 1 1 1 0 0 0 0
0 0 0 0 1 1 1 1 2 1 1 1 2 2 1 1 1 1 0 0 0 0 0 3 3 2 3 3 2 2 1 1 1 1 0 0 0 0
0 0 0 0 0 1 1 2 2 2 2 2 2 2 2 1 1 1 1 1 0 0 0 1 2 5 3 3 3 2 2 1 1 1 0 0 0 0
0 0 0 0 0 1 1 1 1 2 1 2 3 3 2 2 1 1 1 1 1 1 1 1 1 1 2 1 2 2 2 2 2 1 1 0 0 0
0 0 0 0 0 0 1 2 2 2 2 1 2 3 1 2 2 1 1 1 1 1 0 0 1 1 1 1 1 1 0 2 3 3 2 1 0 0
0 0 0 0 0 1 1 2 2 1 1 1 1 2 2 2 2 1 1 1 1 2 1 1 1 1 1 2 2 2 2 0 2 2 3 1 0 0
0 0 0 0 0 0 0 1 2 1 2 2 1 1 1 1 1 1 1 1 1 1 1 1 1 1 0 0 0 0 1 2 0 0 0 0 1 0
0 0 0 0 0 0 0 0 1 2 3 2 1 1 1 1 1 1 1 1 1 1 1 1 1 1 1 1 1 1 1 1 1 0 0 0 0 0
Wind_Speed_500mb
16 28 22 13 6 12 19 14 16 23 18 7 6 15 19 20 33 43 41 47 44 29 38 43 52 55 54 53 45 43 43 45 41 44 49 53 56 58
21 12 29 27 17 5 14 13 18 21 28 27 23 23 30 35 47 50 48 45 25 33 38 45 48 52 53 51 50 50 52 50 48 52 52 56 58 58
24 19 27 24 35 18 15 23 24 26 32 39 36 40 43 42 42 42 46 38 33 31 32 39 47 47 53 52 49 49 55 56 54 53 56 56 57 56
16 32 28 20 23 39 33 29 24 23 28 40 48 45 31 32 36 36 37 32 35 30 42 39 47 43 50 52 47 44 60 60 59 51 54 52 55 55
23 19 21 20 31 33 26 32 28 28 39 37 40 33 37 23 25 29 34 32 33 35 36 33 44 42 50 48 45 40 56 58 60 54 51 50 54 53
32 31 27 31 32 33 33 35 39 39 39 38 39 39 45 40 33 28 26 30 31 35 34 32 37 42 42 47 46 38 51 59 59 60 51 49 50 50
39 41 37 37 33 38 39 34 34 33 34 34 35 39 34 33 36 40 42 39 38 43 36 41 41 36 39 49 48 34 48 55 60 61 50 47 48 48
47 38 45 37 36 43 47 42 43 46 42 44 47 47 46 41 44 44 45 51 59 42 41 45 20 23 37 49 45 42 47 48 58 58 53 45 44 45
49 47 44 46 40 49 48 44 41 44 51 52 57 55 54 47 49 54 53 52 52 51 38 45 37 38 35 45 45 45 43 42 57 58 53 42 39 40
65 59 52 51 44 49 43 49 53 52 52 53 59 57 50 45 45 48 49 54 56 56 43 58 53 47 37 36 41 43 46 39 52 50 52 40 37 36
73 73 73 72 68 60 60 65 67 62 58 59 54 55 55 52 49 53 58 60 71 70 58 45 41 46 40 44 48 49 46 45 45 44 49 34 33 30
72 76 77 77 74 75 74 69 77 81 75 75 67 66 62 64 59 55 62 64 64 67 45 39 47 45 45 43 42 43 49 41 45 41 43 31 31 29
69 71 63 67 65 60 58 66 88 90 88 81 79 77 72 70 68 59 51 55 62 65 55 47 42 47 48 49 45 43 44 44 42 41 43 35 24 24
64 63 66 59 56 67 72 71 66 62 64 72 76 75 71 70 64 56 60 63 65 66 58 60 54 58 65 64 64 42 39 47 47 49 48 37 29 21
69 70 68 68 80 79 74 59 60 73 74 75 78 80 81 83 80 75 76 76 78 73 63 63 59 50 46 43 43 39 37 50 51 55 49 42 36 24
59 64 67 72 74 77 85 86 85 73 74 81 86 87 87 85 84 75 69 65 71 75 67 62 54 54 59 57 51 51 41 47 46 52 56 56 41 37
62 59 54 52 54 64 65 71 84 90 84 83 82 83 78 73 75 63 59 66 68 64 60 62 61 54 56 53 56 55 48 47 48 54 58 60 53 45
67 68 67 67 59 52 56 52 54 58 74 77 70 73 70 64 54 62 58 62 67 66 63 62 60 60 59 63 61 59 55 46 32 52 58 62 61 57
65 67 67 72 66 61 59 67 71 74 76 78 86 77 73 66 61 53 50 65 65 60 63 62 61 60 60 65 65 60 58 46 41 45 56 64 64 64
64 68 68 59 61 72 67 67 73 76 72 74 68 70 67 66 64 68 62 59 58 57 66 64 51 59 66 69 74 68 54 50 50 52 57 62 64 63
60 63 59 54 57 59 66 74 77 82 83 76 85 74 65 77 85 87 69 56 54 56 59 56 54 50 58 66 67 66 66 66 67 63 64 63 65 67
58 62 66 64 61 61 63 70 71 72 76 73 75 80 71 74 81 80 68 73 69 66 68 70 73 69 75 71 67 74 79 75 57 60 65 61 61 71
62 61 65 71 67 64 64 62 76 74 65 70 71 69 65 78 79 70 63 59 56 57 58 60 68 69 75 75 76 79 73 64 54 54 58 52 66 72
Wind_Direction_500mb
221 225 214 210 181 280 291 279 319 321 327 284 302 303 276 296 293 306 307 312 324 337 332 331 342 348 357 3 1 356 353 353 355 346 342 341 339 336
208 217 236 237 258 231 247 261 278 291 296 296 293 315 298 299 301 312 321 318 328 339 334 333 340 346 353 355 359 2 359 357 356 352 349 348 343 344
209 239 232 259 244 226 246 242 256 268 281 288 283 275 277 287 306 320 329 329 330 326 338 338 334 342 346 346 348 359 3 360 356 353 351 350 348 347
249 231 241 252 268 244 250 250 252 256 269 277 274 288 296 312 311 309 328 341 350 345 336 333 326 330 337 337 338 350 4 359 356 355 352 352 350 353
258 264 263 260 255 263 247 257 260 270 271 280 291 297 293 317 316 311 323 327 335 329 317 327 320 323 332 331 330 339 354 354 355 355 354 354 355 356
238 245 261 263 269 280 273 264 251 254 263 269 278 290 303 309 303 303 300 301 317 309 307 313 308 311 318 328 326 332 349 353 350 355 357 356 357 358
246 248 244 258 264 267 277 272 272 267 275 283 280 287 290 298 304 307 310 305 295 297 300 296 300 314 328 325 327 326 341 347 348 351 356 356 359 0
263 258 248 251 258 261 271 274 255 260 262 261 269 275 275 279 286 294 295 298 303 315 303 318 340 329 315 317 326 321 326 339 346 348 353 356 359 2
261 267 260 255 252 262 271 277 275 266 265 269 271 276 283 289 293 296 297 299 298 308 316 313 327 321 305 311 321 317 317 333 336 345 350 354 360 4
252 258 261 263 255 255 266 266 267 271 275 273 275 283 288 295 296 300 300 298 298 303 313 302 316 315 311 313 316 319 319 323 330 340 349 350 359 8
253 253 253 255 261 261 257 262 265 269 274 279 279 282 286 287 288 291 288 294 296 295 292 290 291 307 302 302 306 307 304 315 322 332 347 345 355 12
261 261 259 260 263 259 255 263 266 266 266 264 265 269 274 277 279 279 285 285 288 298 313 294 288 296 302 298 301 307 307 307 318 327 341 345 345 7
263 259 262 272 274 273 270 266 264 271 271 273 273 274 277 277 278 277 277 275 277 280 301 294 297 288 285 285 290 299 303 299 308 314 326 344 340 351
265 264 256 256 264 267 270 271 273 274 272 269 266 267 268 264 265 273 278 279 283 285 293 280 274 287 289 286 282 289 284 296 299 305 310 322 332 330
256 259 260 260 254 254 257 262 264 262 262 263 265 268 273 279 279 270 263 261 269 276 278 279 282 290 286 282 290 289 269 281 291 296 297 304 317 312
263 261 255 256 257 256 252 254 260 262 260 262 266 273 277 277 275 274 267 268 261 266 268 271 273 281 282 279 278 279 268 261 276 282 288 292 297 309
271 268 268 263 267 269 267 263 258 261 261 262 265 270 273 277 264 265 259 255 257 262 264 264 265 271 277 274 270 273 269 266 262 267 271 282 280 287
282 279 275 273 275 272 262 264 269 265 258 263 268 266 265 266 265 249 253 255 256 258 261 261 260 265 270 266 266 273 276 279 283 255 262 267 271 276
282 281 278 273 271 270 271 265 263 260 259 259 256 258 257 271 270 261 254 250 253 260 260 259 258 259 262 262 275 280 280 269 268 261 252 256 263 272
285 283 276 281 275 264 271 280 268 264 261 255 260 259 262 259 257 258 253 250 253 261 261 257 258 256 255 263 267 264 270 278 268 266 262 255 258 259
279 286 278 273 277 282 279 276 275 264 261 266 260 257 256 256 259 249 246 249 253 253 256 259 261 260 259 261 260 263 266 271 275 269 263 259 263 263
282 283 286 281 273 267 270 272 278 275 273 271 270 269 268 268 268 260 257 248 247 251 254 257 257 258 260 265 272 272 276 279 279 264 262 257 261 256
284 283 282 282 283 278 261 259 264 273 275 271 267 266 272 271 264 259 255 252 254 259 263 272 269 263 265 267 267 271 275 275 276 271 271 274 259 259
Wind_Speed_850mb
16 28 22 13 6 12 19 14 16 23 18 7 6 15 19 20 33 43 41 47 44 29 38 43 52 55 54 53 45 43 43 45 41 44 49 53 56 58
21 12 29 27 17 5 14 13 18 21 28 27 23 23 30 35 47 50 48 45 25 33 38 45 48 52 53 51 50 50 52 50 48 52 52 56 58 58
24 19 27 24 35 18 15 23 24 26 32 39 36 40 43 42 42 42 46 38 33 31 32 39 47 47 53 52 49 49 55 56 54 53 56 56 57 56
16 32 28 20 23 39 33 29 24 23 28 40 48 45 31 32 36 36 37 32 35 30 42 39 47 43 50 52 47 44 60 60 59 51 54 52 55 55
23 19 21 20 31 33 26 32 28 28 39 37 40 33 37 23 25 29 34 32 33 35 36 33 44 42 50 48 45 40 56 58 60 54 51 50 54 53
32 31 27 31 32 33 33 35 39 39 39 38 39 39 45 40 33 28 26 30 31 35 34 32 37 42 42 47 46 38 51 59 59 60 51 49 50 50
39 41 37 37 33 38 39 34 34 33 34 34 35 39 34 33 36 40 42 39 38 43 36 41 41 36 39 49 48 34 48 55 60 61 50 47 48 48
47 38 45 37 36 43 47 42 43 46 42 44 47 47 46 41 44 44 45 51 59 42 41 45 20 23 37 49 45 42 47 48 58 58 53 45 44 45
49 47 44 46 40 49 48 44 41 44 51 52 57 55 54 47 49 54 53 52 52 51 38 45 37 38 35 45 45 45 43 42 57 58 53 42 39 40
65 59 52 51 44 49 43 49 53 52 52 53 59 57 50 45 45 48 49 54 56 56 43 58 53 47 37 36 41 43 46 39 52 50 52 40 37 36
73 73 73 72 68 60 60 65 67 62 58 59 54 55 55 52 49 53 58 60 71 70 58 45 41 46 40 44 48 49 46 45 45 44 49 34 33 30
72 76 77 77 74 75 74 69 77 81 75 75 67 66 62 64 59 55 62 64 64 67 45 39 47 45 45 43 42 43 49 41 45 41 43 31 31 29
69 71 63 67 65 60 58 66 88 90 88 81 79 77 72 70 68 59 51 55 62 65 55 47 42 47 48 49 45 43 44 44 42 41 43 35 24 24
64 63 66 59 56 67 72 71 66 62 64 72 76 75 71 70 64 56 60 63 65 66 58 60 54 58 65 64 64 42 39 47 47 49 48 37 29 21
69 70 68 68 80 79 74 59 60 73 74 75 78 80 81 83 80 75 76 76 78 73 63 63 59 50 46 43 43 39 37 50 51 55 49 42 36 24
59 64 67 72 74 77 85 86 85 73 74 81 86 87 87 85 84 75 69 65 71 75 67 62 54 54 59 57 51 51 41 47 46 52 56 56 41 37
62 59 54 52 54 64 65 71 84 90 84 83 82 83 78 73 75 63 59 66 68 64 60 62 61 54 56 53 56 55 48 47 48 54 58 60 53 45
67 68 67 67 59 52 56 52 54 58 74 77 70 73 70 64 54 62 58 62 67 66 63 62 60 60 59 63 61 59 55 46 32 52 58 62 61 57
65 67 67 72 66 61 59 67 71 74 76 78 86 77 73 66 61 53 50 65 65 60 63 62 61 60 60 65 65 60 58 46 41 45 56 64 64 64
64 68 68 59 61 72 67 67 73 76 72 74 68 70 67 66 64 68 62 59 58 57 66 64 51 59 66 69 74 68 54 50 50 52 57 62 64 63
60 63 59 54 57 59 66 74 77 82 83 76 85 74 65 77 85 87 69 56 54 56 59 56 54 50 58 66 67 66 66 66 67 63 64 63 65 67
58 62 66 64 61 61 63 70 71 72 76 73 75 80 71 74 81 80 68 73 69 66 68 70 73 69 75 71 67 74 79 75 57 60 65 61 61 71
62 61 65 71 67 64 64 62 76 74 65 70 71 69 65 78 79 70 63 59 56 57 58 60 68 69 75 75 76 79 73 64 54 54 58 52 66 72
Wind_Direction_850mb
221 225 214 210 181 280 291 279 319 321 327 284 302 303 276 296 293 306 307 312 324 337 332 331 342 348 357 3 1 356 353 353 355 346 342 341 339 336
208 217 236 237 258 231 247 261 278 291 296 296 293 315 298 299 301 312 321 318 328 339 334 333 340 346 353 355 359 2 359 357 356 352 349 348 343 344
209 239 232 259 244 226 246 242 256 268 281 288 283 275 277 287 306 320 329 329 330 326 338 338 334 342 346 346 348 359 3 360 356 353 351 350 348 347
249 231 241 252 268 244 250 250 252 256 269 277 274 288 296 312 311 309 328 341 350 345 336 333 326 330 337 337 338 350 4 359 356 355 352 352 350 353
258 264 263 260 255 263 247 257 260 270 271 280 291 297 293 317 316 311 323 327 335 329 317 327 320 323 332 331 330 339 354 354 355 355 354 354 355 356
238 245 261 263 269 280 273 264 251 254 263 269 278 290 303 309 303 303 300 301 317 309 307 313 308 311 318 328 326 332 349 353 350 355 357 356 357 358
246 248 244 258 264 267 277 272 272 267 275 283 280 287 290 298 304 307 310 305 295 297 300 296 300 314 328 325 327 326 341 347 348 351 356 356 359 0
263 258 248 251 258 261 271 274 255 260 262 261 269 275 275 279 286 294 295 298 303 315 303 318 340 329 315 317 326 321 326 339 346 348 353 356 359 2
261 267 260 255 252 262 271 277 275 266 265 269 271 276 283 289 293 296 297 299 298 308 316 313 327 321 305 311 321 317 317 333 336 345 350 354 360 4
252 258 261 263 255 255 266 266 267 271 275 273 275 283 288 295 296 300 300 298 298 303 313 302 316 315 311 313 316 319 319 323 330 340 349 350 359 8
253 253 253 255 261 261 257 262 265 269 274 279 279 282 286 287 288 291 288 294 296 295 292 290 291 307 302 302 306 307 304 315 322 332 347 345 355 12
261 261 259 260 263 259 255 263 266 266 266 264 265 269 274 277 279 279 285 285 288 298 313 294 288 296 302 298 301 307 307 307 318 327 341 345 345 7
263 259 262 272 274 273 270 266 264 271 271 273 273 274 277 277 278 277 277 275 277 280 301 294 297 288 285 285 290 299 303 299 308 314 326 344 340 351
265 264 256 256 264 267 270 271 273 274 272 269 266 267 268 264 265 273 278 279 283 285 293 280 274 287 289 286 282 289 284 296 299 305 310 322 332 330
256 259 260 260 254 254 257 262 264 262 262 263 265 268 273 279 279 270 263 261 269 276 278 279 282 290 286 282 290 289 269 281 291 296 297 304 317 312
263 261 255 256 257 256 252 254 260 262 260 262 266 273 277 277 275 274 267 268 261 266 268 271 273 281 282 279 278 279 268 261 276 282 288 292 297 309
271 268 268 263 267 269 267 263 258 261 261 262 265 270 273 277 264 265 259 255 257 262 264 264 265 271 277 274 270 273 269 266 262 267 271 282 280 287
282 279 275 273 275 272 262 264 269 265 258 263 268 266 265 266 265 249 253 255 256 258 261 261 260 265 270 266 266 273 276 279 283 255 262 267 271 276
282 281 278 273 271 270 271 265 263 260 259 259 256 258 257 271 270 261 254 250 253 260 260 259 258 259 262 262 275 280 280 269 268 261 252 256 263 272
285 283 276 281 275 264 271 280 268 264 261 255 260 259 262 259 257 258 253 250 253 261 261 257 258 256 255 263 267 264 270 278 268 266 262 255 258 259
279 286 278 273 277 282 279 276 275 264 261 266 260 257 256 256 259 249 246 249 253 253 256 259 261 260 259 261 260 263 266 271 275 269 263 259 263 263
282 283 286 281 273 267 270 272 278 275 273 271 270 269 268 268 268 260 257 248 247 251 254 257 257 258 260 265 272 272 276 279 279 264 262 257 261 256
284 283 282 282 283 278 261 259 264 273 275 271 267 266 272 271 264 259 255 252 254 259 263 272 269 263 265 267 267 271 275 275 276 271 271 274 259 259